Location: Unspecified
(51.3947°N, 0.0000°E)
Time: 08:52:25
(UTC+00:00)

OTV 5 (USA 277) - Visible Passes

Search period start: 24 June 2019 00:00
Search period end: 04 July 2019 00:00
Orbit: 280 x 298 km, 54.5° (Epoch: 21 June)

Date Brightness Start Highest point End Pass type
(mag) Time Alt. Az. Time Alt. Az. Time Alt. Az.
24 Jun ? 00:03:06 10° WNW 00:05:27 37° N 00:07:47 10° ENE visible
24 Jun ? 01:36:49 10° WNW 01:39:18 78° SSW 01:41:45 10° ESE visible
24 Jun ? 22:34:16 10° W 22:36:39 41° N 22:39:02 10° ENE visible
25 Jun ? 00:08:14 10° WNW 00:10:38 44° N 00:13:02 10° E visible
25 Jun ? 01:41:59 10° WNW 01:44:21 43° SSW 01:46:44 10° SE visible
25 Jun ? 21:05:29 10° WSW 21:07:58 90° S 21:10:27 10° ENE visible
25 Jun ? 22:39:30 10° WNW 22:41:51 36° N 22:44:11 10° ENE visible
26 Jun ? 00:13:21 10° WNW 00:15:48 59° NNE 00:18:15 10° E visible
26 Jun ? 01:47:15 10° W 01:49:08 24° SW 01:49:08 24° SW visible
26 Jun ? 21:10:38 10° W 21:13:06 59° NNW 21:15:33 10° ENE visible
26 Jun ? 22:44:42 10° WNW 22:47:03 36° N 22:49:24 10° ENE visible
27 Jun ? 00:18:27 10° WNW 00:20:56 89° SSE 00:21:52 33° ESE visible
27 Jun ? 21:15:51 10° W 21:18:15 44° NNW 21:20:40 10° ENE visible
27 Jun ? 22:49:52 10° WNW 22:52:15 41° N 22:54:37 10° E visible
28 Jun ? 00:23:35 10° WNW 00:25:37 45° WSW 00:25:37 45° WSW visible
28 Jun ? 21:21:06 10° WNW 21:23:27 37° N 21:25:48 10° ENE visible
28 Jun ? 22:54:58 10° WNW 22:57:25 53° NNE 22:59:26 14° E visible
29 Jun ? 00:28:49 10° W 00:29:42 17° W 00:29:42 17° W visible
29 Jun ? 21:26:18 10° WNW 21:28:39 36° N 21:31:00 10° ENE visible
29 Jun ? 23:00:05 10° WNW 23:02:34 79° NNE 23:03:40 28° ESE visible
30 Jun ? 21:31:28 10° WNW 21:33:51 39° N 21:36:13 10° E visible
30 Jun ? 23:05:12 10° WNW 23:07:39 62° SSW 23:07:59 53° SSE visible
01 Jul ? 21:36:36 10° WNW 21:39:02 49° NNE 21:41:27 10° E visible
01 Jul ? 23:10:24 10° W 23:12:24 32° SW 23:12:24 32° SW visible
02 Jul ? 21:41:43 10° WNW 21:44:11 70° NNE 21:46:35 10° ESE visible
02 Jul ? 23:15:46 10° W 23:16:52 17° WSW 23:16:52 17° WSW visible
03 Jul ? 21:46:49 10° WNW 21:49:18 73° SSW 21:51:06 16° ESE visible
